[[{"header":{"parameterUnit":"m.s-1","parameterCategory":1,"la1":30.2992,"la2":30.254,"lo1":-89.0895,"lo2":-89.0443,"dy":0.0025,"dx":0.0025,"nx":19,"ny":19,"refTime":"2026-03-28T09:00:00:Z","depth":0,"parameterNumber":2,"parameterNumberName":"U-component_of_WINDS"},"data":[0,0,0,-7.1947,-7.1949,-7.2015,-7.2015,-7.2147,-7.2149,0,0,0,0,0,0,0,0,0,0,0,-7.1957,-7.1959,-7.1947,-7.1949,-7.2015,-7.2015,-7.2147,-7.2149,0,0,0,0,0,0,0,0,0,0,0,-7.1956,-7.1959,-7.1961,-7.195,-7.2015,-7.2015,-7.2147,-7.208,0,0,0,0,0,0,0,0,0,0,-7.2007,-7.2046,-7.1958,-7.1961,-7.195,-7.2015,-7.2015,-7.2076,-7.2084,-7.2138,0,-7.2196,0,-7.2175,-7.2161,-7.2162,0,0,0,-7.1927,-7.204,-7.2031,-7.1962,-7.1951,-7.2015,-7.1979,-7.208,-7.2089,-7.215,-7.2197,-7.2201,-7.2177,-7.2162,-7.2163,-7.2554,-7.2557,0,0,-7.1923,-7.1985,-7.2024,-7.2038,-7.2032,-7.1977,-7.1981,-7.2085,-7.214,-7.2197,-7.2203,-7.2179,-7.2163,-7.2165,-7.2551,-7.2555,0,0,0,-7.1928,-7.1984,-7.1971,-7.2034,-7.2043,-7.198,-7.1985,-7.2135,-7.2126,-7.2204,-7.2181,-7.2164,-7.2167,-7.2548,-7.2553,-7.2755,0,0,0,-7.1924,-7.1986,-7.197,-7.2009,-7.2042,-7.209,-7.2034,-7.2119,-7.2128,-7.218,-7.2165,-7.2168,-7.2545,-7.255,-7.2742,-7.2839,0,0,0,-7.1943,-7.1988,-7.2008,-7.2012,-7.2043,-7.2087,-7.2083,-7.2119,-7.2116,-7.2162,-7.2169,-7.2543,-7.2549,-7.2731,-7.2821,-7.2959,0,0,0,-7.198,-7.2187,-7.2012,-7.2235,-7.2043,-7.2213,-7.2081,-7.2204,-7.2268,-7.2165,-7.2545,-7.2552,-7.2727,-7.2809,-7.2948,-7.3085,-7.3149,0,0,-7.2276,-7.2225,-7.2351,-7.2196,-7.2413,-7.2197,-7.2443,-7.2442,-7.239,-7.2502,-7.2511,-7.2746,-7.2819,-7.2956,-7.3489,-7.354,0,0,0,-7.2466,-7.2557,-7.26,-7.2664,-7.267,-7.2681,-7.2637,-7.2636,-7.2729,-7.2461,-7.2833,-7.2874,-7.2952,-7.3015,-7.3058,-7.312,-7.2585,-7.2584,-7.2583,-7.2972,-7.2894,-7.3097,-7.3027,-7.3091,-7.3043,-7.3087,-7.3078,-7.298,-7.307,-7.3102,-7.3435,-7.3511,-7.3543,-7.3609,-7.317,-7.3171,-7.3172,-7.3172,-7.3397,-7.3512,-7.3379,-7.3527,-7.3443,-7.3567,-7.3529,-7.3456,-7.3558,-7.3404,-7.3469,-7.3306,-7.3602,-7.3655,-7.3187,-7.3184,-7.3182,-7.3181,-7.318,-7.3718,-7.376,-7.3757,-7.384,-7.3914,-7.3836,-7.394,-7.386,-7.3786,-7.385,-7.3874,-7.3871,-7.3855,-7.3868,-7.3869,-7.387,-7.3871,-7.3872,-7.3873,-7.4052,-7.4041,-7.4139,-7.4163,-7.4192,-7.4222,-7.4177,-7.4204,-7.4213,-7.4147,-7.4147,-7.404,-7.3646,-7.3547,-7.389,-7.3887,-7.3885,-7.3883,-7.3882,-7.4507,-7.4391,-7.4542,-7.4573,-7.4593,-7.4671,-7.4568,-7.4631,-7.4642,-7.4696,-7.4576,-7.4298,-7.424,-7.4205,-7.4122,-7.4593,-7.4593,-7.4593,-7.4593,-7.4776,-7.474,-7.4875,-7.4929,-7.4972,-7.4895,-7.5068,-7.5035,-7.4983,-7.4984,-7.4905,-7.479,-7.4758,-7.4718,-7.4672,-7.4594,-7.5174,-7.5175,-7.5175,-7.5051,-7.5015,-7.5176,-7.5124,-7.5134,-7.5144,-7.5303,-7.537,-7.5287,-7.5197,-7.4984,-7.4959,-7.4772,-7.4716,-7.4619,-7.4549,-7.4404,0,0]},{"header":{"parameterUnit":"m.s-1","parameterCategory":1,"la1":30.2992,"la2":30.254,"lo1":-89.0895,"lo2":-89.0443,"dy":0.0025,"dx":0.0025,"nx":19,"ny":19,"refTime":"2026-03-28T09:00:00:Z","depth":0,"parameterNumber":3,"parameterNumberName":"V-component_of_WINDS"},"data":[0,0,0,0.5346,0.5343,0.5175,0.5174,0.4965,0.4963,0,0,0,0,0,0,0,0,0,0,0,0.5402,0.5401,0.5346,0.5342,0.5175,0.5174,0.4965,0.4963,0,0,0,0,0,0,0,0,0,0,0,0.5403,0.5402,0.54,0.5342,0.5175,0.5174,0.4966,0.5089,0,0,0,0,0,0,0,0,0,0,0.5251,0.531,0.5402,0.54,0.5341,0.5176,0.5174,0.5095,0.5082,0.5044,0,0.5017,0,0.4987,0.495,0.4949,0,0,0,0.5336,0.5322,0.5271,0.54,0.5339,0.5176,0.5249,0.5087,0.5072,0.5026,0.5014,0.5005,0.4984,0.4949,0.4948,0.4765,0.4765,0,0,0.5345,0.5375,0.5282,0.5262,0.5293,0.5254,0.5244,0.5078,0.5064,0.5013,0.5,0.498,0.4947,0.4946,0.4766,0.4765,0,0,0,0.5376,0.5381,0.5335,0.5271,0.524,0.525,0.5237,0.5071,0.5054,0.4998,0.4978,0.4946,0.4944,0.4766,0.4765,0.4769,0,0,0,0.5381,0.5399,0.5339,0.5355,0.5244,0.5155,0.5235,0.5066,0.5046,0.4979,0.4946,0.4942,0.4767,0.4766,0.477,0.4764,0,0,0,0.5411,0.5403,0.5382,0.5357,0.5287,0.5157,0.513,0.5061,0.5034,0.4949,0.4941,0.4767,0.4766,0.4771,0.4766,0.4725,0,0,0,0.5449,0.5384,0.5382,0.5301,0.5289,0.5162,0.513,0.5033,0.4961,0.4945,0.4767,0.4766,0.4771,0.4767,0.4727,0.4696,0.4686,0,0,0.5383,0.5377,0.5327,0.5321,0.5203,0.5185,0.5066,0.4969,0.4931,0.4822,0.4817,0.477,0.4766,0.4725,0.4626,0.4619,0,0,0,0.5316,0.528,0.5242,0.5178,0.5107,0.5043,0.4963,0.4927,0.4834,0.4883,0.4744,0.474,0.4715,0.4699,0.4693,0.4669,0.476,0.476,0.476,0.5261,0.5222,0.5136,0.5077,0.5014,0.4934,0.4879,0.4816,0.479,0.4759,0.4725,0.467,0.4652,0.4647,0.4623,0.4707,0.4707,0.4707,0.4707,0.5159,0.5102,0.5075,0.4982,0.4939,0.4859,0.4779,0.4764,0.4681,0.4691,0.4667,0.468,0.4641,0.4617,0.4706,0.4707,0.4707,0.4707,0.4707,0.5118,0.5084,0.5046,0.495,0.488,0.4821,0.4744,0.4707,0.467,0.4647,0.4607,0.4607,0.46,0.4631,0.4631,0.4631,0.4631,0.463,0.463,0.509,0.5047,0.4989,0.4911,0.4865,0.4801,0.4722,0.4674,0.4612,0.459,0.459,0.4566,0.4646,0.4666,0.4627,0.4628,0.4628,0.4628,0.4629,0.4998,0.5014,0.4925,0.488,0.4785,0.4718,0.4674,0.4581,0.4537,0.45,0.4483,0.4549,0.4538,0.4542,0.4558,0.4493,0.4493,0.4493,0.4493,0.4962,0.4955,0.4857,0.4788,0.4716,0.4668,0.4565,0.4503,0.444,0.4409,0.4414,0.4433,0.4439,0.4424,0.4431,0.4446,0.4353,0.4353,0.4353,0.4902,0.4888,0.4809,0.4753,0.4677,0.4611,0.4513,0.4432,0.4364,0.4347,0.4384,0.439,0.442,0.4433,0.4413,0.4425,0.4451,0,0]}]]